[[{"header":{"parameterUnit":"m.s-1","parameterCategory":1,"la1":30.2991,"la2":30.254,"lo1":-89.0895,"lo2":-89.0444,"dy":0.0017,"dx":0.0017,"nx":28,"ny":28,"refTime":"2024-10-13T09:00:00:Z","depth":0,"parameterNumber":2,"parameterNumberName":"U-component_of_WINDS"},"data":[0,0,0,0,0,0,0,0,0,0,0,0,0,0,0,0,0,0,0,0,0,0,0,0,0,0,0,0,0,0,0,0,0,0,0,0,0,0,0,0,0,0,0,0,0,0,0,0,0,0,0,0,0,0,0,0,0,0,1.567,1.567,0,1.5649,1.5649,1.5648,1.5618,1.5618,1.5617,1.5617,1.5594,1.5594,1.5594,0,0,0,0,0,0,0,0,0,0,0,0,0,1.5681,1.5681,1.567,1.5669,1.5669,1.5649,1.5649,1.5648,1.5619,1.5618,1.5617,1.5617,1.5594,1.5594,1.5594,0,0,0,0,0,0,0,0,0,0,0,0,0,1.5669,1.5681,1.567,1.5652,1.565,1.5649,1.5649,1.5648,1.5619,1.5618,1.5617,1.5616,1.5594,1.5594,1.5594,1.5608,0,0,1.5593,1.5593,0,0,0,0,0,0,0,0,1.567,1.5669,1.5655,1.5653,1.5651,1.5636,1.5644,1.5635,1.5619,1.5631,1.5617,1.5616,1.5609,1.5607,1.5605,1.5607,1.5606,1.5593,1.5593,1.5593,1.5593,0,0,0,0,0,0,0,1.5671,1.567,1.5661,1.5655,1.5652,1.5644,1.5641,1.5642,1.5624,1.5629,1.5627,1.5625,1.5607,1.5605,1.5604,1.5606,1.5593,1.5593,1.5593,1.5593,1.5615,1.5616,0,0,0,0,0,0,1.5675,1.5671,1.5662,1.5661,1.5659,1.5644,1.5642,1.5641,1.5624,1.5621,1.5626,1.5624,1.5606,1.5604,1.5603,1.5616,1.5593,1.5593,1.5593,1.5615,1.5616,1.5616,0,0,0,0,0,0,1.5675,1.5674,1.5663,1.5665,1.5663,1.5645,1.5645,1.5641,1.5639,1.5621,1.5618,1.5627,1.5605,1.5603,1.5607,1.5615,1.5593,1.5593,1.5614,1.5615,1.5616,1.5644,0,0,0,0,0,0,1.5675,1.5675,1.5681,1.5665,1.5663,1.5668,1.5645,1.5641,1.5639,1.5636,1.5622,1.5618,1.5604,1.5607,1.5606,1.5615,1.5593,1.5613,1.5614,1.5616,1.5643,1.5646,1.565,0,0,0,0,0,1.5676,1.569,1.5681,1.568,1.567,1.5668,1.5667,1.5651,1.564,1.5645,1.5633,1.5619,1.5615,1.5608,1.5607,1.5615,1.5612,1.5614,1.5616,1.5641,1.5646,1.5649,0,0,0,0,0,0,1.5707,1.5688,1.5678,1.5687,1.568,1.5663,1.567,1.5657,1.5652,1.5649,1.5629,1.5626,1.5631,1.5624,1.5616,1.5626,1.5611,1.5613,1.5631,1.5635,1.5638,1.5639,1.5593,0,0,0,0,0,1.5715,1.5715,1.5698,1.5708,1.5705,1.5688,1.5687,1.5675,1.5666,1.5662,1.5651,1.5642,1.5638,1.5637,1.5633,1.5642,1.5637,1.5647,1.565,1.5653,1.5654,1.5655,1.5659,1.5622,1.5622,1.5622,0,0,1.5731,1.5721,1.5722,1.5714,1.5707,1.5706,1.5685,1.5687,1.5686,1.5662,1.5664,1.5655,1.5644,1.5649,1.5651,1.5643,1.5663,1.5655,1.5658,1.5657,1.5657,1.5661,1.5664,1.5623,1.5622,1.5622,0,0,1.576,1.5753,1.5759,1.5752,1.5741,1.5729,1.5731,1.5716,1.5709,1.5711,1.5692,1.569,1.5686,1.5677,1.5673,1.5696,1.5682,1.5695,1.5713,1.5715,1.5717,1.572,1.5726,1.5729,1.5697,1.5697,1.5697,0,1.5781,1.5781,1.5764,1.5766,1.5762,1.574,1.5745,1.5739,1.5727,1.5724,1.5716,1.5707,1.5698,1.57,1.5705,1.5703,1.5703,1.5696,1.5719,1.5721,1.5723,1.5728,1.5731,1.5698,1.5698,1.5698,1.5698,0,1.5806,1.5806,1.5813,1.5801,1.5798,1.5801,1.5784,1.5782,1.577,1.5759,1.5759,1.5748,1.574,1.5739,1.5728,1.5739,1.5734,1.5722,1.5707,1.5728,1.5733,1.5735,1.5701,1.57,1.57,1.5699,0,0,1.5854,1.5832,1.5835,1.5828,1.5814,1.5812,1.5814,1.5806,1.5804,1.5796,1.5796,1.5791,1.5779,1.5774,1.5761,1.5763,1.5779,1.5751,1.575,1.5755,1.5787,1.5795,1.5798,1.577,1.5771,1.5771,1.5788,0,1.5879,1.5881,1.5865,1.587,1.5868,1.5847,1.5848,1.5838,1.5828,1.5824,1.5811,1.5807,1.5794,1.579,1.5791,1.5777,1.5785,1.5776,1.5768,1.5767,1.5769,1.5801,1.581,1.5826,1.579,1.579,1.579,0,1.5908,1.5901,1.5906,1.5889,1.5887,1.5889,1.5879,1.5876,1.5864,1.5855,1.5849,1.5834,1.5832,1.5818,1.5815,1.5809,1.5804,1.5797,1.5797,1.5795,1.5779,1.5797,1.5831,1.5833,1.5794,1.5793,1.5793,0,1.5939,1.5931,1.5932,1.5928,1.5909,1.5909,1.5901,1.5889,1.5884,1.5875,1.5872,1.5863,1.5858,1.5851,1.5833,1.5825,1.5831,1.5816,1.5823,1.5823,1.5824,1.5824,1.5856,1.5824,1.5824,1.5824,1.5824,0,1.5967,1.597,1.5946,1.5947,1.5949,1.593,1.5933,1.5923,1.5911,1.5908,1.589,1.5887,1.5866,1.586,1.5847,1.5844,1.5843,1.5835,1.5831,1.5835,1.5836,1.5831,1.5829,1.5825,1.5824,1.5824,1.5824,0,1.6002,1.5986,1.5986,1.5967,1.5962,1.5965,1.5948,1.5947,1.5935,1.5932,1.593,1.591,1.5902,1.5885,1.5873,1.5864,1.5864,1.5858,1.5868,1.5865,1.5872,1.5871,1.5901,1.5903,1.5871,1.5872,1.5872,0,1.602,1.6022,1.6003,1.6,1.5992,1.5988,1.5983,1.5964,1.5959,1.5944,1.5945,1.5936,1.5928,1.5916,1.59,1.589,1.5883,1.5894,1.5881,1.5885,1.588,1.588,1.5879,1.5896,1.5897,1.5897,1.5897,0,1.6052,1.6044,1.6038,1.6028,1.6023,1.6014,1.6005,1.6003,1.5982,1.5977,1.5969,1.5963,1.595,1.594,1.5928,1.5918,1.5903,1.5902,1.5902,1.5906,1.5911,1.5906,1.5874,1.5901,1.59,1.59,1.59,1.59,1.6078,1.6077,1.6064,1.6057,1.6048,1.6039,1.6036,1.6023,1.6017,1.6005,1.5994,1.5986,1.5972,1.5954,1.5945,1.5938,1.5931,1.5932,1.5932,1.5932,1.5933,1.5913,1.5936,1.5935,1.5935,1.5935,1.5935,0,1.6107,1.6097,1.6091,1.6078,1.6072,1.606,1.6048,1.6043,1.6037,1.6026,1.6017,1.6007,1.5998,1.5981,1.5969,1.5967,1.5959,1.5964,1.5963,1.5961,1.5941,1.5941,1.597,1.597,1.597,1.597,1.597,1.597,1.6122,1.612,1.611,1.6103,1.6093,1.6085,1.6079,1.607,1.6061,1.605,1.6042,1.6031,1.6016,1.6004,1.5994,1.5989,1.5984,1.5991,1.5984,1.5966,1.5962,1.5959,1.5959,1.5991,1.5991,1.6003,1.6003,1.6003]},{"header":{"parameterUnit":"m.s-1","parameterCategory":1,"la1":30.2991,"la2":30.254,"lo1":-89.0895,"lo2":-89.0444,"dy":0.0017,"dx":0.0017,"nx":28,"ny":28,"refTime":"2024-10-13T09:00:00:Z","depth":0,"parameterNumber":3,"parameterNumberName":"V-component_of_WINDS"},"data":[0,0,0,0,0,0,0,0,0,0,0,0,0,0,0,0,0,0,0,0,0,0,0,0,0,0,0,0,0,0,0,0,0,0,0,0,0,0,0,0,0,0,0,0,0,0,0,0,0,0,0,0,0,0,0,0,0,0,1.337,1.337,0,1.3398,1.3398,1.3399,1.3364,1.3362,1.3361,1.336,1.3389,1.3391,1.3393,0,0,0,0,0,0,0,0,0,0,0,0,0,1.3284,1.3286,1.337,1.337,1.3371,1.3398,1.3398,1.3399,1.3364,1.3362,1.3361,1.3359,1.3389,1.3391,1.3393,0,0,0,0,0,0,0,0,0,0,0,0,0,1.3318,1.3286,1.337,1.3356,1.3355,1.3398,1.3399,1.3399,1.3364,1.3362,1.336,1.3359,1.3388,1.3391,1.3394,1.3451,0,0,1.3403,1.3404,0,0,0,0,0,0,0,0,1.3316,1.3321,1.3358,1.3357,1.3356,1.3375,1.3379,1.3416,1.3365,1.3361,1.336,1.3358,1.3386,1.3389,1.3399,1.3452,1.3453,1.3403,1.3405,1.3406,1.3407,0,0,0,0,0,0,0,1.3314,1.332,1.3381,1.3359,1.3358,1.3348,1.3351,1.3386,1.3384,1.3361,1.3359,1.3362,1.3385,1.3396,1.3399,1.3454,1.3403,1.3406,1.3407,1.3409,1.3553,1.3555,0,0,0,0,0,0,1.3313,1.3318,1.338,1.3382,1.3331,1.3352,1.3355,1.3371,1.3384,1.3384,1.3364,1.3361,1.3392,1.3396,1.34,1.3466,1.3406,1.3409,1.3411,1.3551,1.3553,1.3555,0,0,0,0,0,0,1.3311,1.3319,1.3379,1.3349,1.3356,1.3355,1.3374,1.3373,1.3383,1.3386,1.3385,1.3375,1.339,1.3396,1.3438,1.3467,1.341,1.3413,1.3548,1.3552,1.3554,1.36,0,0,0,0,0,0,1.3309,1.3318,1.3341,1.335,1.3358,1.3417,1.3376,1.3375,1.3389,1.3384,1.3396,1.3396,1.3389,1.3434,1.3441,1.347,1.3415,1.3546,1.355,1.3553,1.3596,1.3604,1.3611,0,0,0,0,0,1.3306,1.3353,1.3342,1.335,1.3386,1.3419,1.3423,1.3414,1.3391,1.3413,1.3414,1.3396,1.3462,1.3438,1.3446,1.3476,1.3544,1.3549,1.3553,1.3592,1.3602,1.3611,0,0,0,0,0,0,1.3348,1.3354,1.3342,1.3393,1.3406,1.3413,1.344,1.3426,1.3445,1.344,1.3428,1.3431,1.3475,1.348,1.3453,1.3531,1.3499,1.3506,1.3526,1.3536,1.3543,1.3541,1.3418,0,0,0,0,0,1.3363,1.339,1.3393,1.3438,1.3445,1.3442,1.3456,1.3447,1.346,1.3465,1.3469,1.3482,1.3505,1.3521,1.3543,1.3596,1.3597,1.362,1.3628,1.3634,1.364,1.3666,1.3676,1.3571,1.3571,1.357,0,0,1.3395,1.3402,1.3419,1.3447,1.3455,1.3482,1.3446,1.3477,1.3496,1.3469,1.3509,1.3512,1.3525,1.3573,1.3594,1.3578,1.3669,1.364,1.3645,1.3647,1.3672,1.3682,1.3691,1.3574,1.3573,1.3573,0,0,1.3467,1.3475,1.3512,1.3521,1.3534,1.353,1.3539,1.3548,1.3549,1.3588,1.3568,1.3591,1.3632,1.3641,1.3652,1.3724,1.3707,1.3731,1.3771,1.3797,1.3805,1.3813,1.3837,1.3846,1.3737,1.3737,1.3737,0,1.3505,1.3544,1.3533,1.3564,1.3576,1.3552,1.3589,1.3598,1.3618,1.3626,1.3608,1.3658,1.3665,1.3713,1.373,1.374,1.3749,1.373,1.3805,1.3812,1.3819,1.3842,1.3851,1.374,1.3739,1.3739,1.3739,0,1.3589,1.3617,1.3646,1.3664,1.3679,1.3713,1.3706,1.3723,1.3713,1.3711,1.375,1.3758,1.378,1.379,1.3782,1.3837,1.3826,1.3807,1.3775,1.3832,1.3853,1.3862,1.3744,1.3743,1.3742,1.3741,0,0,1.369,1.3699,1.371,1.3717,1.3728,1.3749,1.3781,1.3802,1.3815,1.3829,1.3855,1.3889,1.3871,1.3882,1.3874,1.3897,1.3951,1.3874,1.3874,1.3887,1.401,1.4024,1.4034,1.394,1.3942,1.3943,1.4008,0,1.376,1.3815,1.3804,1.3858,1.3882,1.3858,1.3886,1.3896,1.3895,1.3915,1.3914,1.3937,1.3912,1.3918,1.394,1.394,1.3975,1.3935,1.3963,1.3964,1.3959,1.4045,1.406,1.4122,1.4017,1.4018,1.4019,0,1.3849,1.3865,1.392,1.3925,1.3935,1.396,1.3977,1.3997,1.4006,1.4004,1.4016,1.4002,1.4033,1.4001,1.4042,1.4015,1.4025,1.4027,1.4029,1.4031,1.3994,1.4048,1.4141,1.415,1.4032,1.4031,1.403,0,1.3915,1.395,1.3987,1.3993,1.4001,1.4018,1.4022,1.403,1.4042,1.4057,1.4064,1.4083,1.4093,1.4107,1.4098,1.4076,1.4141,1.4108,1.4139,1.4139,1.4153,1.4152,1.4248,1.4162,1.4162,1.4161,1.4161,0,1.3993,1.4028,1.4016,1.4038,1.4076,1.4063,1.41,1.4101,1.4108,1.413,1.4111,1.4132,1.412,1.4139,1.4133,1.4167,1.4172,1.417,1.4168,1.4171,1.4171,1.4178,1.4173,1.4164,1.4163,1.4163,1.4162,0,1.4073,1.4066,1.4104,1.4107,1.4109,1.4136,1.4138,1.4159,1.4156,1.4184,1.4189,1.4185,1.4207,1.4199,1.4224,1.4219,1.4262,1.4255,1.4258,1.4256,1.4286,1.4283,1.4389,1.4402,1.4308,1.4309,1.431,0,1.4123,1.4149,1.4154,1.4166,1.4171,1.4193,1.4204,1.4192,1.4205,1.4217,1.4236,1.4256,1.4271,1.4307,1.4306,1.4324,1.4316,1.4352,1.4319,1.432,1.4315,1.4313,1.4314,1.4358,1.4359,1.436,1.4361,0,1.4213,1.4207,1.4225,1.4241,1.4255,1.4267,1.4278,1.4289,1.4278,1.4293,1.4315,1.4327,1.435,1.437,1.4385,1.4389,1.4373,1.4371,1.4379,1.4382,1.4383,1.4381,1.4275,1.4369,1.4368,1.4367,1.4367,1.4367,1.4278,1.4299,1.4304,1.4324,1.433,1.434,1.4359,1.4357,1.4375,1.4392,1.4384,1.4409,1.4415,1.4434,1.444,1.4459,1.4445,1.4456,1.4459,1.4462,1.4465,1.438,1.4462,1.4461,1.4461,1.4461,1.4461,0,1.4365,1.4367,1.4385,1.4399,1.4414,1.4397,1.4407,1.4421,1.4442,1.445,1.4465,1.4488,1.4507,1.4506,1.4523,1.4538,1.4531,1.4543,1.4541,1.4541,1.4477,1.4468,1.4548,1.4548,1.4548,1.4548,1.4548,1.4548,1.4412,1.4445,1.444,1.4476,1.4478,1.4501,1.4508,1.4516,1.4522,1.4549,1.4564,1.4563,1.4566,1.4583,1.4599,1.4598,1.4604,1.4619,1.4615,1.4555,1.4546,1.4538,1.4529,1.4621,1.4621,1.4678,1.4678,1.4679]}]]